Location: Unspecified
(0.0000°N, 0.0000°E)
Time: 05:12:13
(UTC+00:00)

Transit 4A - Pass Details

Date: 07 October 2020
Orbit: 862 x 982 km, 66.8° (Epoch: 28 October)

Event Time Altitude Azimuth Distance (km) Brightness Sun altitude
Rises 05:54:27 0° 353° (N) 3,644 10.9 1.7°
Reaches altitude 10° 05:57:09 10° 359° (N) 2,687 10.3 2.3°
Maximum altitude 06:03:05 44° 70° (ENE) 1,274 9.4 3.8°
Drops below altitude 10° 06:08:52 10° 141° (SE) 2,621 11.0 5.2°
Sets 06:11:27 0° 147° (SSE) 3,547 11.5 5.9°
